Regional Weather Roundup
Issued by NWS

Home | Current Version | Previous Version | Text Only | Print | Product List | Glossary Off
Versions: 1 2 3 4 5 6 7 8 9 10 11 12 13 14 15 16 17 18 19 20 21 22 23 24 25 26 27 28 29 30 31 32 33 34 35 36 37 38 39 40 41 42 43 44 45 46 47 48 49 50

000
ASUS43 KMPX 030310
RWRMN
WEATHER ROUNDUP FOR MINNESOTA
NATIONAL WEATHER SERVICE TWIN CITIES/CHANHASSEN MN
1000 PM CDT TUE JUN 02 2015


NOTE: "FAIR" INDICATES FEW OR NO CLOUDS BELOW 12,000 FEET WITH NO
SIGNIFICANT WEATHER AND/OR OBSTRUCTIONS TO VISIBILITY. N/A MEANS
CURRENT SKY AND/OR WEATHER CONDITIONS ARE NOT AVAILABLE.

MNZ060>063-068>070-030400-
   Twin Cities Metro

CITY           SKY/WX    TMP DP  RH WIND       PRES   REMARKS
TWIN CITIES    PTCLDY    69  52  54 SE12      29.90F
ST PAUL        PTCLDY    68  53  58 SE10      29.91S
CRYSTAL        CLEAR     71  52  50 SE12      29.88F
BLAINE         CLEAR     72  54  53 SE13      29.90S
LAKEVILLE      PTCLDY    66  52  59 SE7       29.92R
EDEN PRAIRIE   CLEAR     67  53  61 SE8       29.89S
SOUTH ST PAUL  PTCLDY    69  51  52 SE8       29.91S
LAKE ELMO      FAIR      68  52  56 SE9       29.93S
$$
MNZ001>005-007-008-013>017-022>024-027-028-030400-
   Northwest Minnesota

CITY           SKY/WX    TMP DP  RH WIND       PRES   REMARKS
BEMIDJI        PTCLDY    64  54  69 SE12      29.79F
HALLOCK        CLOUDY    61  61 100 NE7       29.80S
ROSEAU         RAIN      61  55  82 NE9       29.79F
WARROAD        LGT RAIN  59  55  88 SE3       29.84R
THIEF RVR FALL CLOUDY    63  61  94 NE16      29.78S
CROOKSTON      MOCLDY    64  61  88 NE12G17   29.74S
FOSSTON        MOCLDY    64  57  77 SE3       29.75F
DETROIT LAKES  CLOUDY    72  57  60 S15       29.76F
MOORHEAD       CLOUDY    73  63  68 SE14      29.70R
PARK RAPIDS    MOCLDY    68  54  60 SE14      29.78F
MAHNOMEN       MOCLDY    67  56  67 SE13G20   29.73F
$$
MNZ006-009>011-018-025>026-030400-
   North Central Minnesota

CITY           SKY/WX    TMP DP  RH WIND       PRES   REMARKS
BAUDETTE       CLOUDY    60  58  92 E3        29.85R
FLAG ISLAND    LGT RAIN  57  57 100 CALM      29.83R
INTL FALLS     CLOUDY    59  56  89 SE9       29.85F
WASKISH        RAIN      63  57  82 CALM      29.81F
BIG FORK       CLOUDY    64  54  68 S6        29.85S
LONGVILLE      CLOUDY    64  54  68 SE7       29.84F
GRAND RAPIDS   CLOUDY    64  52  63 SE9       29.89R
CRANE LAKE     RAIN      57  57 100 CALM      29.92R
ORR            CLOUDY    66  48  52 CALM      29.85S
COOK           CLOUDY    66  54  63 SE8       29.88S
WALKER         FAIR      64  54  68 SE7       29.80F
$$
MNZ012-019>021-037-030400-
   Northeast Minnesota

CITY           SKY/WX    TMP DP  RH WIND       PRES   REMARKS
DULUTH         LGT RAIN  54  43  66 E7        29.94S
ELY            CLOUDY    66  48  52 S7        29.90S
HIBBING        CLOUDY    65  54  67 VRB6      29.89S
EVELETH        CLOUDY    63  54  72 S8        29.91S
DULUTH HARBOR  LGT RAIN  48  43  81 NE7       29.95F
TWO HARBORS    CLOUDY    59  48  67 CALM      29.92S
SILVER BAY     CLOUDY    55  43  62 CALM      29.93S
GRAND MARAIS     N/A     53  41  63 CALM      29.95S
G MARAIS ARPRT CLOUDY    54  36  50 CALM      29.98R
$$
MNZ029>031-032-039>041-046>048-054>057-064-030400-
   West Central Minnesota

CITY           SKY/WX    TMP DP  RH WIND       PRES   REMARKS
FERGUS FALLS   MOCLDY    73  57  56 S20G26    29.73F
WHEATON        PTCLDY    72  61  68 SE15      29.75F
MORRIS         PTCLDY    73  59  60 S15       29.79S
ALEXANDRIA     MOCLDY    70  56  61 SE13      29.84R
ELBOW LAKE     FAIR      72  58  61 SE17      29.77F
WADENA         MOCLDY    72  54  53 SE15      29.80F
GLENWOOD       CLEAR     66  55  68 SE12      29.85R
APPLETON       CLEAR     75  57  53 S7        29.80R
BENSON         MOCLDY    73  55  53 S13G20    29.82R
ORTONVILLE     PTCLDY    73  61  64 S8        29.78S
MADISON        PTCLDY    72  61  68 S8        29.80R
WILLMAR        FAIR      72  55  56 S8        29.87R
$$
MNZ033>034-036-042>043-049>051-058-059-030400-
   Central Minnesota

CITY           SKY/WX    TMP DP  RH WIND       PRES   REMARKS
ST CLOUD       PTCLDY    68  52  56 SE9       29.87R
SAUK CENTRE    FAIR      68  52  56 SE10      29.86R
PAYNESVILLE    CLEAR     67  50  52 E7        29.87R
AITKIN         CLOUDY    68  54  60 SE6       29.87R
PINE RIVER     CLOUDY    66  55  68 SE8       29.88F
BRAINERD       MOCLDY    67  54  63 SE8       29.87R
STAPLES        CLOUDY    70  50  49 SE6       29.84S
LONG PRAIRIE   CLOUDY    70  52  52 SE13      29.86R
LITTLE FALLS   MOCLDY    68  50  52 SE9       29.87R
LITCHFIELD     CLEAR     72  52  49 SE5       29.88R
BUFFALO        CLEAR     69  50  50 SE6       29.89R
MAPLE LAKE     CLEAR     69  55  59 SE5       29.89R
$$
MNZ037-044-045-052-053-030400-
   East Central Minnesota

CITY           SKY/WX    TMP DP  RH WIND       PRES   REMARKS
PRINCETON      PTCLDY    70  54  56 SE6       29.89R
MORA           PTCLDY    64  52  63 SE5       29.92R
CAMBRIDGE      CLEAR     70  54  56 SE6       29.88R
RUSH CITY      PTCLDY    65  53  63 SE6       29.91R
MOOSE LAKE     PTCLDY    64  52  63 SE3       29.89S
HINCKLEY       FAIR      64  54  68 SE3       29.91R
CLOQUET        CLOUDY    54  43  66 E5        29.93R
MCGREGOR       MOCLDY    64  54  68 SE7       29.89R
$$
MNZ071>073-080-081-089-090-097-098-030400-
   Southwest Minnesota

CITY           SKY/WX    TMP DP  RH WIND       PRES   REMARKS
MONTEVIDEO     CLEAR     73  57  56 S10G16    29.83R
GRANITE FALLS  CLEAR     72  56  56 SE17      29.85R
CANBY          PTCLDY    73  60  64 S8        29.81R
MARSHALL       PTCLDY    72  55  56 S15       29.83R
REDWOOD FALLS  CLEAR     72  54  53 S18       29.85R
OLIVIA         CLEAR     68  52  56 S13       29.86R
PIPESTONE      MOCLDY    72  61  68 S17       29.85R
WINDOM         CLEAR     70  55  60 S16G22    29.89S
WORTHINGTON    CLEAR     68  54  60 S17       29.89R
JACKSON        CLEAR     68  55  64 S15G23    29.92R
TRACY          CLEAR     71  56  60 S17       29.85R
SLAYTON        PTCLDY    68  55  63 SE17G25   29.87R
$$
MNZ065>067-074>077-082>085-091>093-030400-
   South Central Minnesota

CITY           SKY/WX    TMP DP  RH WIND       PRES   REMARKS
MANKATO        CLEAR     70  52  52 S14G22    29.91R
NEW ULM        FAIR      70  52  52 S16       29.89R
ST JAMES       CLEAR     70  55  60 SE15      29.91R
FAIRMONT       CLEAR     66  50  55 S15G21    29.91R
GLENCOE        CLEAR     71  55  55 S5        29.89R
FARIBAULT      PTCLDY    68  54  60 SE8       29.93S
OWATONNA       PTCLDY    68  52  56 S9        29.94R
WASECA         CLEAR     68  50  52 S14       29.94R
ALBERT LEA     CLEAR     66  52  59 S10G20    29.95R
$$
MNZ078>079-086>088-094>096-030400-
   Southeast Minnesota

CITY           SKY/WX    TMP DP  RH WIND       PRES   REMARKS
ROCHESTER      PTCLDY    63  50  62 S10       29.98R
RED WING       PTCLDY    66  52  59 SE6       29.94S
STANTON        PTCLDY    69  51  52 SE9       29.92S
DODGE CENTER   PTCLDY    66  52  59 S12       29.96S
WINONA         CLEAR     63  52  67 SE6       29.98S
AUSTIN         PTCLDY    64  52  63 S8        29.96R
PRESTON        PTCLDY    63  50  63 SE8       29.99S
$$
ABBREVIATIONS USED IN REMARKS
   TC - TEMPERATURES IN CELSIUS
  WCI - WIND CHILL INDEX
   HX - HEAT INDEX
  VSB - VISIBILITY
$$



USA.gov is the U.S. government's official web portal to all federal, state and local government web resources and services.